Temp
12 12 12 12 12 12 12 12 11 12 11 11 11 11 11 11 10 10 10 9 9 9 9 9 10 10 10 10 10 10 10 10 10 10 10 10 10 10 10 10 10 10 9
12 12 11 12 12 12 12 11 11 11 11 11 11 11 11 11 10 10 10 10 10 10 10 10 10 10 10 10 10 10 10 10 10 10 10 10 10 10 10 9 9 9 9
11 11 11 11 11 12 11 11 11 11 11 11 11 11 11 11 10 10 10 10 10 10 10 10 10 9 9 10 10 10 10 10 10 10 10 10 10 9 9 9 9 9 9
11 11 11 11 11 11 11 11 11 11 11 10 10 10 10 10 10 10 10 10 10 10 10 9 9 10 10 10 10 9 9 9 9 9 9 9 9 9 8 9 8 8 8
11 11 11 11 11 11 11 11 11 10 10 10 10 10 10 10 10 10 10 10 10 10 9 9 9 9 9 9 9 9 9 9 9 9 9 8 8 8 8 8 8 8 7
11 11 10 11 11 10 10 10 10 10 10 10 10 10 9 9 9 9 9 9 9 9 9 9 9 8 8 8 8 9 8 8 8 8 8 8 8 7 7 7 7 7 7
10 11 10 10 10 10 10 10 10 10 9 9 9 9 9 9 9 9 9 9 9 8 8 8 8 8 8 8 8 8 8 8 7 7 7 7 7 7 7 7 7 7 7
10 10 10 10 10 10 10 10 10 9 9 9 9 9 9 9 8 8 9 8 8 8 8 8 7 7 7 7 7 7 7 7 7 7 7 7 6 7 7 7 7 7 6
10 10 10 10 10 10 10 10 9 9 9 9 9 8 8 8 8 8 8 8 8 8 8 7 7 7 7 7 7 7 7 7 7 7 7 7 6 6 7 6 7 7 6
9 9 10 10 9 9 9 9 9 9 9 9 9 8 8 8 8 8 8 8 8 7 7 7 7 7 7 7 7 7 6 7 6 6 7 6 6 6 6 6 6 6 6
9 9 9 9 9 9 9 9 9 9 9 9 9 8 8 8 8 8 8 7 7 7 7 7 7 7 7 7 7 7 6 6 6 6 7 6 6 6 6 6 6 6 6
9 9 9 9 9 9 9 9 9 9 9 9 8 8 8 8 8 8 7 7 7 7 7 7 6 6 6 6 6 6 6 6 6 6 6 6 6 6 6 6 6 5 5
8 8 9 9 9 9 9 9 9 9 9 8 8 8 8 8 8 7 7 7 7 7 7 6 6 6 6 6 6 6 6 6 6 5 6 5 5 5 6 6 6 5 5
8 8 8 8 8 8 8 8 8 8 8 8 8 8 8 8 8 7 7 7 7 7 6 6 6 6 6 6 5 6 5 5 5 5 6 5 5 5 6 6 6 6 5
7 8 8 8 8 8 7 7 8 8 8 8 8 8 7 7 7 7 7 7 7 6 6 6 5 5 5 5 5 5 5 5 5 5 6 5 5 6 6 6 6 6 6
7 7 7 7 7 7 7 7 7 7 7 7 7 7 7 7 7 7 7 7 7 6 6 5 5 5 5 5 5 5 5 5 5 5 5 6 5 6 5 6 6 6 6
7 7 7 7 7 7 7 7 7 6 7 7 7 7 7 7 6 7 7 7 6 6 6 5 5 5 5 5 5 5 5 5 5 5 5 6 6 5 5 6 5 6 5
7 7 6 7 7 7 6 7 6 6 6 6 6 6 6 6 6 7 7 6 6 6 5 5 5 5 5 4 5 5 5 5 5 5 5 5 5 6 5 5 5 5 5
6 6 7 7 6 6 6 6 6 6 6 6 6 6 6 6 6 6 6 6 6 6 5 5 5 4 4 4 4 5 5 5 5 5 5 5 5 5 5 5 5 5 5
5 5 6 6 6 6 6 6 6 6 6 6 6 6 6 6 6 5 6 6 5 5 5 4 4 4 4 4 4 4 4 4 4 4 4 4 4 4 4 4 5 4 4
6 6 6 6 6 6 6 6 6 6 6 6 6 6 5 5 5 5 4 4 4 4 4 4 4 4 4 3 3 3 4 4 4 4 4 4 4 4 4 4 4 4 3
6 6 6 6 6 6 6 6 6 6 6 6 5 5 5 4 4 4 4 4 3 4 4 4 3 3 3 3 3 3 3 3 4 3 3 3 3 4 3 3 3 2 2
6 6 6 5 5 6 6 6 5 6 6 6 5 5 5 4 4 3 3 3 3 3 3 3 3 3 3 3 3 2 3 3 3 3 3 3 3 3 2 2 1 1 1
6 6 6 5 5 5 5 6 6 6 6 6 5 5 4 4 3 3 3 2 2 3 3 3 2 2 2 2 2 2 2 2 2 2 3 3 3 2 2 1 1 1 1
5 5 6 5 5 5 5 5 5 5 5 6 6 5 4 3 3 2 2 2 2 2 2 2 2 2 2 2 2 2 2 2 2 2 2 2 2 1 1 1 2 2 2
5 4 5 5 5 5 5 5 5 5 5 5 6 5 4 3 3 2 2 1 2 2 2 2 2 2 1 1 1 2 2 1 1 1 1 1 1 1 1 1 1 1 1
Height
3145 3145 3145 3144 3144 3144 3143 3142 3141 3141 3140 3140 3140 3140 3139 3138 3137 3137 3137 3137 3137 3138 3139 3139 3140 3141 3141 3141 3142 3144 3145 3145 3146 3146 3147 3147 3147 3147 3146 3147 3146 3146 3146
3144 3145 3145 3145 3144 3144 3143 3143 3142 3141 3141 3140 3140 3140 3140 3139 3138 3137 3136 3136 3137 3138 3138 3139 3140 3140 3139 3140 3141 3142 3144 3145 3145 3145 3145 3145 3145 3145 3145 3145 3144 3144 3144
3143 3144 3144 3144 3144 3144 3143 3143 3142 3142 3141 3140 3140 3140 3139 3139 3139 3138 3138 3138 3138 3138 3139 3139 3138 3138 3139 3140 3140 3142 3142 3144 3144 3144 3144 3143 3144 3144 3144 3143 3143 3143 3142
3142 3143 3143 3144 3144 3143 3143 3143 3143 3142 3142 3141 3140 3140 3140 3140 3139 3139 3139 3139 3138 3138 3138 3138 3138 3139 3139 3140 3140 3141 3142 3142 3143 3143 3142 3142 3142 3142 3142 3141 3141 3140 3140
3141 3142 3143 3143 3143 3143 3142 3142 3143 3143 3143 3142 3142 3141 3140 3139 3139 3139 3138 3138 3138 3138 3138 3138 3139 3139 3139 3140 3140 3140 3141 3141 3141 3141 3141 3141 3140 3140 3140 3139 3139 3138 3137
3140 3141 3142 3142 3143 3143 3142 3142 3142 3143 3143 3142 3141 3140 3140 3139 3139 3139 3139 3139 3138 3138 3138 3139 3139 3139 3139 3139 3140 3140 3140 3140 3140 3140 3139 3139 3139 3138 3137 3137 3136 3136 3135
3139 3139 3140 3141 3141 3142 3141 3142 3142 3142 3142 3142 3141 3140 3140 3140 3140 3139 3139 3138 3138 3138 3138 3138 3138 3138 3138 3139 3139 3139 3139 3139 3138 3138 3138 3137 3137 3136 3135 3134 3134 3134 3133
3137 3138 3139 3139 3140 3140 3140 3140 3141 3141 3142 3141 3141 3141 3140 3140 3140 3140 3139 3138 3138 3138 3138 3138 3137 3137 3138 3138 3138 3138 3138 3137 3137 3137 3137 3136 3135 3134 3134 3133 3133 3132 3131
3135 3136 3137 3137 3138 3139 3139 3139 3140 3140 3141 3141 3141 3141 3140 3140 3140 3139 3139 3138 3137 3137 3137 3137 3137 3137 3137 3137 3137 3136 3137 3136 3136 3136 3134 3134 3133 3132 3131 3131 3130 3129 3128
3133 3134 3135 3136 3137 3137 3138 3138 3139 3139 3140 3140 3140 3140 3139 3139 3139 3139 3138 3138 3137 3137 3137 3136 3136 3136 3136 3136 3136 3136 3136 3135 3134 3133 3131 3132 3130 3129 3128 3127 3127 3126 3125
3130 3131 3132 3133 3135 3136 3136 3137 3137 3138 3139 3139 3139 3139 3139 3139 3138 3138 3138 3138 3137 3137 3136 3136 3136 3135 3135 3134 3134 3134 3133 3133 3132 3130 3128 3128 3127 3126 3125 3124 3124 3123 3122
3127 3128 3130 3130 3132 3133 3134 3135 3135 3136 3137 3137 3137 3138 3138 3138 3137 3137 3137 3136 3136 3136 3135 3135 3134 3134 3133 3132 3133 3132 3131 3130 3129 3127 3126 3124 3123 3122 3121 3120 3119 3119 3118
3123 3125 3126 3127 3128 3129 3130 3132 3133 3134 3135 3135 3136 3136 3136 3136 3136 3135 3135 3135 3135 3134 3133 3133 3133 3132 3131 3130 3130 3129 3128 3127 3125 3123 3123 3121 3119 3118 3117 3116 3116 3114 3113
3120 3121 3123 3124 3125 3126 3127 3128 3130 3131 3132 3132 3133 3133 3134 3134 3134 3133 3133 3133 3132 3132 3131 3130 3130 3129 3129 3128 3128 3126 3125 3124 3123 3120 3119 3118 3116 3114 3113 3112 3110 3109 3108
3116 3117 3119 3120 3122 3123 3124 3124 3125 3127 3128 3129 3129 3130 3131 3131 3131 3131 3130 3130 3129 3129 3128 3128 3127 3127 3126 3125 3124 3124 3122 3120 3119 3117 3113 3114 3111 3110 3108 3107 3106 3104 3103
3112 3113 3114 3116 3117 3119 3121 3122 3122 3123 3124 3125 3126 3127 3127 3128 3128 3127 3127 3127 3127 3126 3125 3125 3124 3124 3123 3122 3121 3120 3118 3116 3115 3113 3109 3109 3107 3105 3103 3102 3101 3100 3098
3107 3108 3109 3111 3113 3114 3116 3117 3119 3119 3120 3121 3122 3123 3124 3124 3124 3124 3125 3124 3124 3123 3122 3122 3121 3120 3119 3118 3117 3116 3114 3112 3110 3108 3105 3102 3102 3100 3099 3097 3096 3095 3093
3100 3101 3103 3105 3108 3109 3111 3112 3114 3115 3115 3117 3118 3119 3120 3120 3121 3121 3122 3121 3121 3119 3119 3118 3117 3117 3116 3114 3113 3111 3109 3108 3106 3103 3101 3099 3096 3095 3094 3091 3090 3089 3087
3093 3095 3097 3099 3102 3104 3106 3107 3109 3110 3110 3112 3113 3114 3116 3116 3116 3116 3117 3117 3117 3116 3115 3115 3115 3113 3112 3110 3109 3107 3105 3103 3101 3099 3097 3094 3092 3089 3087 3087 3084 3082 3080
3083 3086 3090 3091 3095 3098 3100 3102 3103 3104 3105 3106 3107 3109 3111 3111 3111 3111 3112 3112 3112 3111 3111 3111 3111 3110 3108 3107 3105 3103 3101 3099 3096 3094 3092 3089 3086 3083 3081 3079 3077 3074 3072
3072 3075 3080 3083 3088 3091 3093 3096 3098 3098 3099 3099 3102 3104 3106 3106 3107 3106 3107 3107 3108 3107 3107 3107 3107 3106 3105 3103 3101 3098 3096 3094 3091 3089 3086 3083 3080 3077 3075 3072 3069 3066 3063
3062 3065 3070 3075 3079 3083 3086 3089 3091 3088 3090 3094 3096 3098 3099 3101 3102 3102 3102 3103 3103 3103 3103 3103 3103 3102 3101 3099 3097 3094 3091 3089 3087 3083 3080 3076 3073 3071 3067 3064 3061 3057 3054
3050 3055 3060 3066 3070 3074 3078 3081 3082 3081 3086 3088 3090 3092 3094 3096 3098 3098 3098 3098 3099 3099 3099 3099 3099 3098 3096 3095 3092 3090 3085 3082 3079 3076 3073 3070 3067 3064 3060 3057 3053 3049 3045
3039 3044 3048 3055 3060 3065 3069 3072 3074 3078 3079 3082 3084 3087 3089 3090 3092 3093 3094 3094 3094 3094 3094 3094 3094 3093 3092 3090 3088 3084 3080 3076 3071 3068 3065 3061 3058 3054 3051 3048 3046 3042 3037
3029 3032 3036 3041 3049 3054 3061 3064 3068 3070 3071 3075 3078 3080 3082 3086 3087 3088 3088 3089 3089 3090 3090 3090 3089 3088 3087 3084 3081 3078 3075 3070 3064 3060 3058 3055 3050 3046 3041 3036 3033 3029 3025
3018 3021 3025 3030 3038 3044 3049 3057 3062 3061 3065 3070 3072 3074 3076 3079 3081 3082 3082 3083 3084 3084 3085 3085 3084 3083 3081 3078 3075 3072 3067 3062 3056 3051 3046 3045 3040 3039 3032 3027 3024 3019 3014
Wind_Speed
6 4 1 2 4 7 7 7 6 5 5 6 6 6 6 6 5 3 3 5 5 6 7 8 8 8 8 9 9 9 10 10 10 9 10 10 12 12 12 12 13 13 13
8 6 3 0 4 7 7 7 6 5 5 5 5 6 6 5 4 2 2 3 4 5 6 6 6 7 7 8 7 7 8 9 9 9 11 12 13 13 13 13 14 14 14
10 8 4 1 3 6 6 6 6 6 6 6 6 6 4 4 4 2 2 3 4 5 6 6 5 5 5 4 5 7 8 9 10 11 12 13 13 14 14 15 15 16 15
11 8 5 3 6 5 3 4 5 5 5 5 5 6 5 3 2 2 2 2 3 3 3 3 3 4 4 5 6 8 9 9 11 12 13 13 14 14 14 15 15 15 14
10 8 6 5 4 3 3 1 3 4 4 4 4 5 5 5 5 4 4 3 4 4 4 4 5 6 6 7 8 9 10 10 11 12 13 13 12 12 11 12 12 12 13
10 8 8 7 7 5 4 2 2 4 5 6 6 7 7 6 6 6 6 5 5 5 6 6 6 7 7 7 9 9 9 10 10 10 11 12 12 12 11 12 11 12 12
17 17 14 11 10 9 6 5 4 3 4 5 6 6 6 6 7 7 7 7 7 6 6 5 5 5 6 6 7 8 9 9 10 11 12 12 12 12 12 13 12 12 12
20 19 16 16 14 12 10 8 7 6 5 5 5 6 6 6 7 7 8 7 7 7 6 6 6 6 6 6 7 7 8 9 10 10 12 13 13 14 15 15 15 15 14
21 22 21 19 16 15 13 12 10 9 8 7 7 7 7 7 6 7 7 7 6 5 5 5 5 5 5 6 7 8 10 11 12 13 14 14 14 15 16 17 18 16 16
20 20 21 20 19 18 16 15 13 11 10 9 9 9 9 8 8 7 7 7 7 7 6 6 7 7 8 9 10 10 11 13 14 14 16 15 17 18 18 18 19 19 18
21 21 22 22 22 21 20 17 15 13 12 12 12 12 11 11 10 8 8 8 8 8 8 9 9 9 9 10 11 12 13 15 16 17 19 19 19 19 19 19 19 19 19
22 21 22 22 23 23 23 20 18 16 15 15 14 13 12 12 11 11 10 10 10 10 10 11 11 10 11 12 11 13 15 17 18 19 18 19 19 20 20 21 21 21 21
22 23 23 24 25 25 25 23 22 20 18 17 16 15 14 13 12 12 12 13 13 12 12 12 12 12 12 14 15 15 16 17 19 20 19 21 22 23 25 25 24 24 25
25 25 23 21 22 24 24 23 23 22 21 20 19 17 16 15 14 14 15 15 16 15 15 14 13 13 14 15 16 16 17 18 20 22 23 23 24 25 26 26 25 24 24
28 27 23 23 21 20 20 20 22 22 21 21 21 19 17 16 16 17 18 18 18 17 16 15 15 15 15 15 16 17 18 20 22 24 27 24 25 24 24 24 24 24 24
31 30 28 26 25 23 21 20 20 21 20 21 20 19 18 18 18 19 20 19 19 18 17 15 15 15 15 16 17 18 20 22 24 24 26 23 23 23 22 23 23 24 25
34 33 33 33 31 30 27 24 21 21 21 22 22 21 21 20 19 20 21 20 19 18 17 15 15 14 15 16 18 20 22 23 23 23 23 25 22 23 23 24 25 26 27
40 38 36 36 33 32 29 28 25 24 26 24 24 24 24 23 23 23 25 20 18 17 16 15 14 14 16 18 20 21 22 22 23 23 23 23 24 24 24 26 27 28 30
43 43 41 38 35 33 31 30 27 27 29 29 28 28 28 27 28 23 23 21 17 15 15 14 15 15 16 19 21 22 23 23 23 24 24 25 25 26 27 28 30 31 33
43 46 44 44 39 35 34 33 30 31 32 31 31 32 30 30 29 24 21 20 17 16 14 14 14 15 17 19 21 23 24 25 25 25 25 26 26 29 30 32 33 35 36
56 54 52 48 42 38 35 34 32 33 33 36 34 32 30 30 28 24 21 21 19 18 15 15 15 16 17 20 22 25 25 26 26 26 27 28 30 31 32 34 36 37 38
61 61 56 52 49 44 39 36 35 37 37 35 33 32 32 30 27 24 20 21 19 19 16 16 16 16 18 21 23 25 28 29 26 27 28 30 32 34 35 36 38 39 39
53 61 61 57 54 49 46 41 39 39 35 31 29 31 31 30 28 26 22 21 22 20 18 17 17 18 20 21 25 28 30 31 31 31 31 32 34 35 37 37 37 38 39
44 53 59 60 57 54 51 47 42 35 33 32 30 29 30 31 31 29 23 23 20 20 19 18 18 19 22 25 27 29 32 33 34 34 35 37 39 40 40 38 36 37 39
42 47 53 57 59 58 54 48 41 36 37 34 32 30 31 31 31 29 24 25 23 21 20 19 20 22 25 28 30 33 35 35 36 38 38 38 41 40 42 43 43 44 45
44 47 51 54 54 58 56 48 42 40 36 33 32 30 30 33 30 27 24 21 23 23 21 21 23 25 28 31 33 36 38 38 39 41 44 43 43 40 43 44 45 47 49
Wind_Direction
236 219 186 43 19 15 18 23 19 11 7 353 347 342 337 325 309 288 249 236 223 206 205 209 214 220 230 231 235 239 238 239 245 253 263 272 277 280 286 291 294 297 296
231 229 217 44 347 359 5 14 16 14 8 4 354 345 346 326 319 297 228 209 193 188 198 204 205 210 227 227 217 227 234 243 250 261 267 272 279 285 291 294 294 294 291
219 219 226 235 337 343 350 358 4 2 4 1 355 353 351 330 318 286 222 204 193 192 198 203 201 208 208 223 233 244 246 253 260 266 271 277 283 288 291 293 292 290 289
216 214 219 260 300 309 310 335 345 352 354 353 344 340 340 338 296 281 250 231 226 234 230 233 247 247 244 247 252 258 264 265 269 272 278 282 286 290 292 294 293 293 295
205 213 220 223 243 244 247 281 329 338 344 339 333 332 328 330 328 309 289 278 274 275 273 268 262 266 262 262 267 269 272 276 277 279 282 287 290 291 296 294 293 293 293
204 230 246 241 255 236 239 250 286 316 327 331 332 333 330 326 318 312 305 292 276 267 266 261 264 263 264 270 272 276 281 285 288 291 289 290 291 291 295 291 292 293 292
235 249 253 233 230 238 234 250 266 277 297 314 320 325 324 317 315 311 304 302 295 285 278 272 267 272 279 282 286 290 289 289 292 294 295 295 296 298 295 292 288 287 285
231 237 234 237 228 228 235 240 251 260 272 283 294 303 310 309 310 314 307 298 292 291 290 288 288 291 289 292 296 299 302 306 305 306 302 301 304 300 296 290 288 284 282
230 237 234 232 228 231 234 238 249 256 264 275 286 295 297 302 303 310 319 316 314 310 305 307 311 313 313 313 313 315 313 308 305 304 302 303 299 297 294 293 294 292 285
233 237 238 234 236 237 237 238 247 260 267 276 283 290 296 297 303 311 318 316 312 305 306 309 310 310 312 310 311 310 306 301 301 299 294 301 296 294 293 292 293 289 286
231 237 242 242 241 243 242 242 244 252 262 273 281 284 292 294 290 295 299 303 304 304 299 295 295 301 301 305 305 303 299 299 296 298 296 296 295 294 292 290 287 286 285
231 235 240 242 245 244 245 245 246 249 257 264 271 274 281 287 289 294 294 293 296 298 296 292 291 293 298 299 294 292 294 297 299 297 298 295 294 293 292 291 289 289 286
232 235 239 241 242 244 247 245 247 248 255 262 267 268 275 284 288 287 288 291 292 293 294 295 289 293 297 296 294 295 297 299 298 297 299 296 296 295 295 293 294 291 288
235 237 239 242 243 245 243 246 249 251 253 257 261 265 270 279 285 288 287 290 292 291 293 293 294 291 289 291 293 296 298 297 296 295 295 293 293 293 292 294 293 293 290
233 236 234 237 240 240 243 247 250 252 255 256 260 263 269 276 283 287 288 289 290 287 291 289 288 288 291 290 292 296 298 298 297 296 296 296 295 294 295 295 294 293 292
232 236 235 235 238 240 242 245 250 254 255 259 262 266 270 274 280 286 288 288 288 285 283 279 279 284 287 292 297 300 302 301 300 299 299 299 297 297 297 297 297 296 295
232 236 238 240 240 242 244 245 247 255 258 261 268 269 273 275 279 284 286 285 283 281 278 276 276 281 287 291 298 303 304 303 301 300 300 300 299 300 299 299 298 296 295
230 231 235 238 240 241 242 243 248 253 258 263 271 272 275 277 277 276 283 282 282 279 274 272 274 280 289 300 306 307 306 305 303 302 301 300 301 299 299 299 299 298 297
233 236 239 241 240 242 241 245 246 253 259 263 268 271 273 276 278 279 276 284 279 273 268 268 274 285 297 305 309 310 310 309 306 305 303 300 301 300 300 299 298 297 296
227 231 233 240 240 239 244 248 252 260 260 261 263 267 271 273 277 276 278 284 281 271 265 268 276 289 301 309 313 313 313 311 309 306 302 302 301 301 301 300 300 299 297
233 233 232 237 240 241 242 245 253 263 259 255 258 266 265 268 271 271 276 278 274 274 262 267 277 291 302 310 313 315 314 313 309 304 302 302 301 300 299 299 298 296 295
235 238 238 235 237 240 242 244 251 258 255 253 259 262 263 263 263 263 272 274 266 270 259 266 278 293 304 311 314 316 316 313 309 305 305 304 302 301 300 299 298 296 295
237 238 237 233 235 238 242 243 246 256 262 253 252 258 261 258 255 256 259 267 266 266 257 265 279 293 302 309 315 316 317 314 312 310 306 304 300 300 298 298 297 296 296
239 239 238 234 233 237 239 244 249 257 251 248 250 255 255 253 253 257 261 262 261 257 256 267 282 293 302 309 312 315 316 313 312 310 309 306 305 303 301 298 296 294 293
232 235 238 238 233 236 239 243 247 252 245 246 250 250 250 248 249 253 255 262 261 256 258 272 284 294 303 308 312 315 314 313 311 309 307 304 304 304 303 302 301 300 299
227 227 233 234 234 234 238 240 242 246 244 249 253 252 245 240 245 247 256 253 253 254 262 275 286 295 302 307 311 313 314 313 312 310 308 307 305 304 302 303 303 302 299